User: anonymous   Login
Location: Unspecified
(0.0000°N, 0.0000°E)
Time: 23:19:55
(UTC+00:00)
Language:

MSX - Orbit

View from above orbital plane
View from above orbital plane
View from above satellite
View from above satellite

Ground track
Ground track

The orbit is defined by the following mean orbital elements,

1 23851U          26140.54703479 +.00000000 +00000-0 +18326-3 0 00007
2 23851  99.0421  78.0228 0006996 323.0446  37.0235 13.98390241    05
Epoch (UTC): 20 May 2026 13:07:43
Eccentricity: 0.0006996
inclination: 99.0421°
perigee height: 894 km
apogee height: 904 km
right ascension of ascending node: 78.0228°
argument of perigee: 323.0446°
revolutions per day: 13.98390241
mean anomaly at epoch: 37.0235°

The dashed part of the orbit path shows where the satellite is in the earth's shadow,  

DLR